VOE1ND GMMX-LEIB

Flight info

Callsign VOE1ND
Flight time N/A
Altitude 36000
Route OBOGA UG850 BERUM N860 AMR/N0450F270 Y810 ALT/N0452F360 N851 RUXET
Aircraft A320/M-SDE3FGHIRWY/LB1

Departure

Time 2026-04-30 14:19
Airport Marrakesh Menara Airport (GMMX)

Arrival

Time N/A
Airport Ibiza Airport (LEIB)
Time Latitude Longitude Altitude Speed Heading
2026-04-30 13:50 31.60184 -8.02297 1550 ft 0 kts 273°
2026-04-30 14:09 31.60181 -8.02249 1549 ft 4 kts 278°
2026-04-30 14:10 31.60174 -8.02221 1549 ft 4 kts 320°
2026-04-30 14:10 31.60165 -8.02215 1549 ft 0 kts
2026-04-30 14:14 31.60181 -8.02212 1549 ft 3 kts
2026-04-30 14:14 31.60196 -8.02210 1549 ft 1 kts
2026-04-30 14:14 31.60201 -8.02210 1549 ft 1 kts
2026-04-30 14:15 31.60241 -8.02205 1549 ft 7 kts
2026-04-30 14:15 31.60283 -8.02201 1549 ft 6 kts
2026-04-30 14:15 31.60344 -8.02196 1549 ft 12 kts
2026-04-30 14:15 31.60383 -8.02121 1549 ft 14 kts 97°
2026-04-30 14:16 31.60428 -8.02035 1549 ft 13 kts
2026-04-30 14:16 31.60446 -8.02034 1549 ft 0 kts
2026-04-30 14:17 31.60460 -8.02032 1549 ft 6 kts
2026-04-30 14:17 31.60505 -8.02028 1550 ft 6 kts
2026-04-30 14:17 31.60541 -8.02041 1549 ft 5 kts 326°
2026-04-30 14:18 31.60552 -8.02074 1549 ft 4 kts 277°
2026-04-30 14:18 31.60554 -8.02093 1549 ft 0 kts 277°
2026-04-30 14:18 31.60596 -8.02527 1548 ft 83 kts 276°
2026-04-30 14:19 31.60786 -8.04775 1649 ft 177 kts 276°
2026-04-30 14:19 31.60887 -8.06228 2317 ft 180 kts 275°
2026-04-30 14:19 31.60973 -8.07702 3007 ft 182 kts 276°
2026-04-30 14:20 31.61104 -8.09191 3584 ft 190 kts 277°
2026-04-30 14:20 31.61267 -8.10817 3828 ft 212 kts 277°
2026-04-30 14:20 31.61632 -8.14564 4654 ft 245 kts 277°
2026-04-30 14:21 31.61948 -8.16537 5391 ft 249 kts 291°
2026-04-30 14:21 31.62850 -8.18278 6101 ft 253 kts 313°
2026-04-30 14:21 31.65985 -8.20093 7518 ft 262 kts 356°
2026-04-30 14:22 31.67805 -8.19846 8199 ft 268 kts 19°
2026-04-30 14:22 31.70591 -8.17032 9598 ft 274 kts 66°
2026-04-30 14:22 31.71104 -8.14881 10258 ft 275 kts 84°
2026-04-30 14:23 31.71668 -8.10375 11590 ft 283 kts 83°
2026-04-30 14:23 31.72251 -8.05749 12943 ft 290 kts 82°
2026-04-30 14:24 31.72860 -8.01007 14218 ft 297 kts 82°
2026-04-30 14:24 31.73169 -7.98622 14788 ft 301 kts 80°
2026-04-30 14:25 31.74831 -7.94056 15607 ft 320 kts 50°
2026-04-30 14:25 31.77869 -7.89804 15864 ft 359 kts 48°
2026-04-30 14:26 31.81255 -7.85038 16114 ft 395 kts 49°
2026-04-30 14:26 31.83042 -7.82501 16291 ft 409 kts 49°
2026-04-30 14:26 31.86807 -7.77346 17247 ft 419 kts 46°
2026-04-30 14:27 31.88784 -7.74801 17776 ft 423 kts 45°
2026-04-30 14:27 31.90771 -7.72288 18306 ft 427 kts 45°
2026-04-30 14:27 31.92804 -7.69721 18768 ft 430 kts 45°
2026-04-30 14:28 31.96892 -7.64493 19677 ft 437 kts 45°
2026-04-30 14:28 31.98939 -7.61838 20112 ft 440 kts 46°
2026-04-30 14:28 32.00996 -7.59156 20533 ft 443 kts 46°
2026-04-30 14:28 32.03060 -7.56452 20958 ft 446 kts 46°
2026-04-30 14:29 32.07242 -7.50993 21770 ft 451 kts 46°
2026-04-30 14:29 32.10765 -7.46413 22423 ft 455 kts 46°
2026-04-30 14:30 32.17910 -7.37057 23638 ft 464 kts 46°
2026-04-30 14:31 32.22246 -7.31368 24218 ft 468 kts 46°
2026-04-30 14:31 32.26627 -7.25622 24794 ft 473 kts 46°
2026-04-30 14:31 32.28832 -7.22728 25064 ft 475 kts 47°
2026-04-30 14:32 32.33269 -7.16900 25586 ft 479 kts 47°
2026-04-30 14:32 32.35508 -7.13955 25831 ft 482 kts 47°
2026-04-30 14:32 32.37749 -7.11000 26064 ft 484 kts 47°
2026-04-30 14:33 32.40001 -7.08032 26318 ft 486 kts 47°
2026-04-30 14:33 32.44533 -7.02060 26775 ft 490 kts 47°
2026-04-30 14:33 32.46813 -6.99054 26989 ft 492 kts 47°
2026-04-30 14:34 32.49073 -6.96072 27198 ft 493 kts 47°
2026-04-30 14:34 32.51397 -6.92999 27408 ft 495 kts 48°
2026-04-30 14:34 32.53669 -6.89991 27628 ft 496 kts 48°
2026-04-30 14:34 32.55966 -6.86949 27923 ft 496 kts 48°
2026-04-30 14:35 32.59814 -6.81846 28404 ft 495 kts 48°
2026-04-30 14:35 32.62852 -6.77814 28772 ft 496 kts 49°
2026-04-30 14:35 32.65152 -6.74759 29051 ft 496 kts 49°
2026-04-30 14:36 32.67451 -6.71704 29339 ft 496 kts 49°
2026-04-30 14:36 32.69745 -6.68654 29652 ft 496 kts 49°
2026-04-30 14:36 32.72043 -6.65593 29951 ft 496 kts 49°
2026-04-30 14:36 32.74333 -6.62538 30220 ft 496 kts 49°
2026-04-30 14:37 32.76628 -6.59476 30474 ft 496 kts 49°
2026-04-30 14:37 32.78914 -6.56425 30747 ft 495 kts 49°
2026-04-30 14:37 32.81201 -6.53365 31013 ft 494 kts 49°
2026-04-30 14:37 32.83480 -6.50312 31296 ft 493 kts 49°
2026-04-30 14:38 32.85754 -6.47269 31583 ft 492 kts 49°
2026-04-30 14:38 32.88022 -6.44238 31862 ft 491 kts 49°
2026-04-30 14:38 32.90287 -6.41202 32152 ft 489 kts 50°
2026-04-30 14:38 32.92540 -6.38177 32453 ft 488 kts 50°
2026-04-30 14:39 32.94789 -6.35157 32741 ft 487 kts 50°
2026-04-30 14:39 32.97038 -6.32141 33021 ft 486 kts 50°
2026-04-30 14:39 32.99281 -6.29139 33312 ft 484 kts 50°
2026-04-30 14:40 33.03746 -6.23166 33907 ft 481 kts 50°
2026-04-30 14:40 33.05963 -6.20192 34189 ft 479 kts 50°
2026-04-30 14:40 33.08176 -6.17220 34425 ft 479 kts 50°
2026-04-30 14:40 33.10356 -6.14287 34643 ft 478 kts 50°
2026-04-30 14:41 33.12561 -6.11317 34853 ft 478 kts 50°
2026-04-30 14:41 33.14765 -6.08347 35056 ft 478 kts 50°
2026-04-30 14:41 33.16967 -6.05377 35257 ft 478 kts 50°
2026-04-30 14:41 33.19167 -6.02407 35443 ft 478 kts 50°
2026-04-30 14:42 33.21368 -5.99431 35630 ft 477 kts 50°
2026-04-30 14:42 33.23564 -5.96456 35821 ft 477 kts 50°
2026-04-30 14:42 33.25754 -5.93485 35991 ft 477 kts 50°
2026-04-30 14:42 33.27955 -5.90498 36051 ft 480 kts 50°
2026-04-30 14:43 33.32378 -5.84503 36059 ft 481 kts 50°
2026-04-30 14:43 33.36807 -5.78489 36058 ft 481 kts 50°
2026-04-30 14:44 33.41220 -5.72475 36064 ft 481 kts 50°
2026-04-30 14:44 33.45625 -5.66432 36072 ft 481 kts 50°
2026-04-30 14:45 33.50029 -5.60392 36075 ft 481 kts 50°
2026-04-30 14:45 33.54438 -5.54348 36078 ft 482 kts 50°
2026-04-30 14:46 33.58844 -5.48293 36091 ft 482 kts 50°
2026-04-30 14:46 33.62508 -5.43260 36093 ft 482 kts 50°
2026-04-30 14:47 33.67662 -5.36162 36091 ft 482 kts 50°
2026-04-30 14:47 33.72036 -5.30115 36088 ft 482 kts 50°
2026-04-30 14:48 33.76430 -5.24038 36091 ft 482 kts 50°
2026-04-30 14:48 33.80817 -5.17952 36106 ft 482 kts 51°
2026-04-30 14:49 33.85196 -5.11861 36108 ft 487 kts 51°
2026-04-30 14:49 33.89643 -5.05677 36110 ft 492 kts 51°
2026-04-30 14:50 33.97206 -4.97294 36112 ft 497 kts 38°
2026-04-30 14:51 34.04622 -4.90553 36104 ft 500 kts 38°
2026-04-30 14:52 34.12953 -4.82938 36082 ft 502 kts 38°
2026-04-30 14:52 34.21260 -4.75322 36058 ft 502 kts 38°
2026-04-30 14:53 34.29642 -4.67618 36058 ft 502 kts 38°
2026-04-30 14:54 34.40770 -4.57364 36063 ft 503 kts 38°
2026-04-30 14:55 34.49093 -4.49613 36065 ft 503 kts 38°
2026-04-30 14:56 34.60129 -4.39273 36061 ft 503 kts 39°
2026-04-30 14:57 34.68452 -4.31492 36064 ft 504 kts 39°
2026-04-30 14:58 34.79544 -4.21036 36069 ft 505 kts 39°
2026-04-30 14:58 34.87883 -4.13167 36081 ft 506 kts 39°
2026-04-30 15:00 35.01782 -4.00001 36087 ft 507 kts 39°
2026-04-30 15:01 35.12933 -3.89403 36097 ft 508 kts 39°
2026-04-30 15:01 35.21299 -3.81442 36084 ft 509 kts 39°
2026-04-30 15:02 35.26945 -3.76214 36090 ft 509 kts 38°
2026-04-30 15:03 35.41095 -3.63164 36076 ft 510 kts 38°
2026-04-30 15:04 35.55197 -3.50002 36067 ft 512 kts 38°
2026-04-30 15:06 35.69394 -3.36710 36064 ft 513 kts 38°
2026-04-30 15:07 35.80759 -3.26026 36074 ft 515 kts 38°
2026-04-30 15:08 35.92095 -3.15205 36073 ft 516 kts 39°
2026-04-30 15:09 36.06212 -3.01531 36077 ft 516 kts 39°
2026-04-30 15:10 36.17532 -2.90567 36076 ft 517 kts 39°
2026-04-30 15:11 36.34598 -2.74198 36056 ft 516 kts 38°
2026-04-30 15:13 36.48815 -2.60553 36053 ft 517 kts 38°
2026-04-30 15:14 36.68473 -2.40867 36069 ft 519 kts 39°
2026-04-30 15:17 36.91937 -2.13022 36067 ft 519 kts 51°
2026-04-30 15:19 37.10418 -1.85245 36054 ft 520 kts 51°